Change the Weather History Date:

Saturday, April 12, 2014

  Actual Average Record
Temperature  
Mean Temperature 39 °F -  
Max Temperature 44 °F 53 °F 83 °F (1977)
Min Temperature 34 °F 32 °F 14 °F (1957)
Degree Days  
Heating Degree Days 26    
Moisture  
Dew Point 35 °F    
Average Humidity 85    
Maximum Humidity 100    
Minimum Humidity 52    
Precipitation  
Precipitation 0.33 in - - ()
Sea Level Pressure  
Sea Level Pressure 29.87 in    
Wind  
Wind Speed 6 mph (East)    
Max Wind Speed 17 mph    
Max Gust Speed 23 mph    
Visibility 7 miles    
Events Rain , Thunderstorm    
Averages and records for this station are not official NWS values.
T = Trace of Precipitation, MM = Missing Value Source: NWS Daily Summary

Daily Weather History Graph

Daily Weather History Graph

Search for Another Location

Airport or City:

Trip Planner

Search our weather history database for the weather conditions in past years. The results will help you decide how hot, cold, wet, or windy it might be!

Date:

Astronomy

Apr. 12, 2014 Rise Set
Actual Time 6:19 AM CDT 7:39 PM CDT
Civil Twilight 5:49 AM CDT 8:09 PM CDT
Nautical Twilight 5:12 AM CDT 8:45 PM CDT
Astronomical Twilight 4:34 AM CDT 9:24 PM CDT
Moon 5:12 PM CDT (4/12) 4:52 AM CDT (4/12)
Length of Visible Light 14h 20m
Length of Day
13h 19m
Waxing Gibbous, 93% of the Moon is Illuminated
Apr 12
Waxing Gibbous
Apr 15
Full
Apr 22
Last Quarter
Apr 29
New
May 6
First Quarter

Hourly Weather History & Observations

Time (CDT) Temp. Windchill Dew Point Humidity Pressure Visibility Wind Dir Wind Speed Gust Speed Precip Events Conditions
12:15 AM 34.5 °F - 29.3 °F 81% 30.00 in 10.0 mi Calm Calm - N/A   Clear
12:35 AM 35.6 °F - 29.8 °F 80% 30.00 in 10.0 mi Calm Calm - N/A   Clear
12:55 AM 35.1 °F - 30.2 °F 82% 29.99 in 10.0 mi Calm Calm - N/A   Scattered Clouds
1:15 AM 37.4 °F - 32.0 °F 81% 30.00 in 10.0 mi Calm Calm - N/A   Clear
1:35 AM 39.0 °F 36.8 °F 33.6 °F 81% 30.01 in 10.0 mi SW 3.5 mph - N/A   Mostly Cloudy
1:44 AM 39.2 °F - 33.8 °F 81% 30.01 in 10.0 mi Calm Calm - N/A   Mostly Cloudy
1:55 AM 38.8 °F - 33.3 °F 80% 30.01 in 10.0 mi Calm Calm - N/A   Overcast
2:15 AM 38.5 °F 36.1 °F 33.1 °F 81% 30.00 in 10.0 mi East 3.5 mph - N/A   Overcast
2:35 AM 39.2 °F - 34.2 °F 82% 30.00 in 10.0 mi Calm Calm - N/A   Overcast
2:55 AM 37.6 °F 34.0 °F 33.1 °F 84% 29.99 in 10.0 mi SE 4.6 mph - N/A   Overcast
3:15 AM 39.9 °F 35.1 °F 34.9 °F 82% 29.97 in 10.0 mi ESE 6.9 mph - N/A   Overcast
3:35 AM 41.7 °F 38.0 °F 34.7 °F 76% 29.97 in 10.0 mi SE 5.8 mph - N/A   Overcast
3:55 AM 43.0 °F 38.2 °F 34.3 °F 72% 29.98 in 10.0 mi SSE 8.1 mph - N/A   Overcast
4:15 AM 43.2 °F 39.0 °F 34.2 °F 71% 29.98 in 10.0 mi SSE 6.9 mph - N/A   Overcast
4:35 AM 43.9 °F 39.9 °F 34.0 °F 68% 29.97 in 10.0 mi SE 6.9 mph - N/A   Overcast
4:55 AM 44.1 °F 41.5 °F 32.5 °F 64% 29.97 in 10.0 mi ESE 4.6 mph - N/A   Overcast
5:15 AM 42.8 °F 38.0 °F 32.2 °F 66% 29.94 in 10.0 mi East 8.1 mph - N/A   Overcast
5:35 AM 42.8 °F 39.3 °F 31.6 °F 65% 29.95 in 10.0 mi East 5.8 mph - N/A   Overcast
5:55 AM 42.1 °F 37.7 °F 31.5 °F 66% 29.95 in 10.0 mi East 6.9 mph - N/A   Overcast
6:15 AM 42.1 °F 39.2 °F 30.4 °F 63% 29.95 in 10.0 mi East 4.6 mph - N/A   Overcast
6:35 AM 42.6 °F 39.0 °F 29.5 °F 60% 29.95 in 10.0 mi East 5.8 mph - N/A   Overcast
6:55 AM 42.8 °F 40.1 °F 29.1 °F 58% 29.96 in 10.0 mi East 4.6 mph - N/A   Overcast
7:15 AM 43.0 °F 38.2 °F 29.3 °F 59% 29.94 in 10.0 mi East 8.1 mph - N/A   Overcast
7:35 AM 43.3 °F 39.2 °F 29.5 °F 58% 29.95 in 10.0 mi East 6.9 mph - N/A   Unknown
7:55 AM 44.1 °F 40.1 °F 28.2 °F 54% 29.93 in 10.0 mi East 6.9 mph - N/A   Overcast
8:15 AM 44.6 °F 41.4 °F 27.7 °F 52% 29.95 in 10.0 mi SE 5.8 mph - N/A   Overcast
8:35 AM 44.1 °F 39.5 °F 28.2 °F 54% 29.96 in 10.0 mi East 8.1 mph - N/A Rain Light Rain
8:55 AM 41.4 °F 35.7 °F 32.0 °F 69% 29.96 in 10.0 mi East 9.2 mph - N/A Rain Light Rain
9:15 AM 39.6 °F 32.1 °F 33.8 °F 80% 29.93 in 7.0 mi NE 12.7 mph - 0.02 in Rain Rain
9:35 AM 38.5 °F 30.7 °F 34.7 °F 86% 29.95 in 7.0 mi NE 12.7 mph - 0.05 in Rain Rain
9:55 AM 37.8 °F 29.8 °F 35.1 °F 90% 29.92 in 4.0 mi ENE 12.7 mph - 0.11 in Rain Rain
10:15 AM 37.6 °F 29.1 °F 35.2 °F 91% 29.89 in 10.0 mi ENE 13.8 mph 20.7 mph 0.01 in Rain , Thunderstorm Light Thunderstorms and Rain
10:35 AM 37.8 °F 30.7 °F 35.2 °F 91% 29.92 in 7.0 mi ENE 10.4 mph - 0.04 in Rain Rain
10:55 AM 37.9 °F 31.5 °F 35.6 °F 91% 29.95 in 3.0 mi ENE 9.2 mph - 0.11 in Rain Rain
11:35 AM 37.6 °F 28.1 °F 36.1 °F 95% 29.89 in 4.0 mi East 17.3 mph 21.9 mph 0.09 in Rain Light Rain
11:55 AM 37.6 °F 28.8 °F 36.1 °F 95% 29.87 in 7.0 mi ENE 15.0 mph 23.0 mph 0.09 in   Mostly Cloudy
12:15 PM 37.9 °F 28.9 °F 36.5 °F 95% 29.87 in 7.0 mi East 16.1 mph 23.0 mph N/A   Overcast
12:55 PM 38.7 °F 30.1 °F 37.0 °F 94% 29.85 in 7.0 mi East 15.0 mph 19.6 mph 0.01 in Rain Light Rain
1:15 PM 39.0 °F 31.0 °F 37.4 °F 94% 29.82 in 5.0 mi East 13.8 mph 17.3 mph N/A Rain Light Rain
1:35 PM 39.2 °F 30.8 °F 37.4 °F 93% 29.82 in 10.0 mi East 15.0 mph 19.6 mph N/A   Overcast
1:55 PM 39.6 °F 32.1 °F 37.4 °F 92% 29.81 in 10.0 mi East 12.7 mph 21.9 mph N/A   Overcast
2:15 PM 39.6 °F 31.7 °F 37.0 °F 91% 29.82 in 10.0 mi East 13.8 mph 23.0 mph N/A Thunderstorm Thunderstorm
2:55 PM 39.4 °F 31.1 °F 37.2 °F 92% 29.80 in 7.0 mi East 15.0 mph 21.9 mph 0.01 in   Overcast
3:15 PM 39.4 °F 32.7 °F 37.4 °F 93% 29.79 in 4.0 mi ENE 10.4 mph - N/A   Overcast
3:35 PM 39.2 °F 32.0 °F 37.4 °F 93% 29.78 in 4.0 mi East 11.5 mph - N/A Rain Light Rain
3:55 PM 39.2 °F 32.0 °F 37.6 °F 94% 29.79 in 4.0 mi East 11.5 mph 16.1 mph N/A   Overcast
4:15 PM 39.2 °F 31.6 °F 37.6 °F 94% 29.78 in 5.0 mi ENE 12.7 mph 16.1 mph N/A   Overcast
4:35 PM 39.2 °F 33.0 °F 37.4 °F 93% 29.78 in 5.0 mi ENE 9.2 mph 17.3 mph N/A   Overcast
4:55 PM 39.2 °F 32.5 °F 37.4 °F 93% 29.79 in 3.0 mi ENE 10.4 mph - N/A   Overcast
5:15 PM 39.2 °F 33.0 °F 37.6 °F 94% 29.78 in 2.5 mi ENE 9.2 mph - N/A   Overcast
5:35 PM 38.8 °F 32.6 °F 37.6 °F 95% 29.78 in 4.0 mi ENE 9.2 mph - N/A   Overcast
5:55 PM 38.8 °F 33.2 °F 37.6 °F 95% 29.78 in 5.0 mi NE 8.1 mph - N/A   Overcast
6:15 PM 38.8 °F 33.2 °F 37.6 °F 95% 29.78 in 5.0 mi ENE 8.1 mph - N/A   Overcast
6:35 PM 38.7 °F 33.6 °F 37.4 °F 95% 29.78 in 5.0 mi ENE 6.9 mph - N/A   Overcast
6:55 PM 38.5 °F 31.6 °F 37.4 °F 96% 29.78 in 5.0 mi ENE 10.4 mph - N/A   Overcast
7:15 PM 38.5 °F 31.6 °F 37.4 °F 96% 29.78 in 7.0 mi ENE 10.4 mph - N/A   Overcast
7:35 PM 38.5 °F 32.1 °F 37.4 °F 96% 29.79 in 7.0 mi ENE 9.2 mph - N/A   Overcast
7:55 PM 38.3 °F 30.5 °F 37.4 °F 97% 29.78 in 5.0 mi ENE 12.7 mph 16.1 mph N/A   Overcast
8:15 PM 38.3 °F 31.9 °F 37.4 °F 97% 29.78 in 5.0 mi ENE 9.2 mph - N/A   Overcast
8:35 PM 37.9 °F 30.9 °F 37.4 °F 98% 29.78 in 5.0 mi ENE 10.4 mph - N/A   Overcast
8:55 PM 37.9 °F 30.5 °F 37.4 °F 98% 29.77 in 5.0 mi NE 11.5 mph - N/A   Overcast
9:15 PM 37.8 °F 31.8 °F 37.4 °F 99% 29.78 in 4.0 mi ENE 8.1 mph - N/A   Overcast
9:35 PM 37.8 °F 30.7 °F 37.4 °F 99% 29.75 in 3.0 mi NE 10.4 mph - N/A   Overcast
9:55 PM 37.8 °F 31.3 °F 37.4 °F 99% 29.75 in 2.5 mi ENE 9.2 mph - N/A   Overcast
10:15 PM 37.6 °F 33.1 °F 37.4 °F 99% 29.76 in 1.5 mi ENE 5.8 mph - N/A   Overcast
10:35 PM 37.6 °F 31.0 °F 37.4 °F 99% 29.76 in 1.2 mi ENE 9.2 mph - N/A   Overcast
10:55 PM 37.4 °F 30.8 °F 37.4 °F 100% 29.73 in 1.0 mi ENE 9.2 mph - N/A   Overcast
11:15 PM 37.0 °F 28.9 °F 36.9 °F 99% 29.71 in 0.8 mi NE 12.7 mph - N/A   Overcast
11:35 PM 37.0 °F 28.9 °F 36.9 °F 99% 29.71 in 0.8 mi NE 12.7 mph - N/A   Overcast
11:55 PM 37.0 °F 31.0 °F 36.9 °F 99% 29.72 in 1.0 mi ENE 8.1 mph - N/A   Overcast